Location: ???????????
(54.6970°N, 39.1477°E)
Time: 10:59:10
(UTC+00:00)

NOSS 2-2 (E) - Pass Details

Date: 19 May 2025
Orbit: 390 x 1730 km, 63.3° (Epoch: 14 June)

Event Time Altitude Azimuth Distance (km) Brightness Sun altitude
Rises 23:27:43 0° 307° (NW) 2,508 6.8 -10.5°
Reaches altitude 10° 23:29:37 10° 302° (WNW) 1,732 5.9 -10.3°
Maximum altitude 23:33:18 49° 227° (SW) 787 3.7 -10.1°
Drops below altitude 10° 23:38:16 10° 153° (SSE) 2,332 6.2 -9.7°
Sets 23:41:12 0° 149° (SSE) 3,496 7.2 -9.5°
